Station Historical Data
 
Daily Summary for December 12, 2018 Units:  English    Metric   Both
Next Day »
Daily Weekly Monthly Yearly Custom
  Current: High: Low: Average:
Temperature: 44.4 °F 44.4 °F 38.5 °F 40.9 °F
Dew Point: 39 °F 39.4 °F 35.7 °F 37.8 °F
Humidity: 81% 92% 80% 89%
Wind Speed: 4.6mph 8.1mph 0mph 1.6mph
Wind Gust: 0mph 1.4mph - -
WindWest - - SW
Pressure: 30.29 in 30.31 in 29.91 in -
Precipitation: 0 in      
Historical Graphs
 
 
Tabular Data for December 12, 2018
Time Temperature Dew Point Pressure Wind Wind Speed Wind Gust Humidity Rainfall Rate (Hourly)
00:04 41.5 °F 39.1 °F 29.91 in Calm     91% 0 in
00:09 41.5 °F 39.1 °F 29.91 in ESE 2 mph   91% 0 in
00:14 41.5 °F 39.1 °F 29.91 in SE 3.5 mph   91% 0 in
00:19 41.7 °F 39.3 °F 29.93 in SW 2.3 mph   91% 0 in
00:24 41.7 °F 39 °F 29.93 in Calm     90% 0 in
00:29 41.7 °F 39.3 °F 29.93 in Calm     91% 0 in
00:34 41.7 °F 39.3 °F 29.93 in SW 4.6 mph   91% 0 in
00:39 41.5 °F 39.1 °F 29.93 in WSW 2.3 mph   91% 0 in
00:44 41.5 °F 38.8 °F 29.93 in East 3.5 mph   90% 0 in
00:49 41.5 °F 38.8 °F 29.94 in WSW 1.4 mph   90% 0 in
00:54 41.5 °F 38.8 °F 29.94 in WSW 1.2 mph   90% 0 in
00:59 41.4 °F 38.6 °F 29.94 in ESE 4.3 mph   90% 0 in
01:04 41.5 °F 38.8 °F 29.96 in NW 2.3 mph   90% 0 in
01:09 41.5 °F 38.8 °F 29.96 in Calm     90% 0 in
01:14 41.5 °F 38.8 °F 29.96 in Calm     90% 0 in
01:19 41.5 °F 38.8 °F 29.97 in Calm     90% 0 in
01:24 41.4 °F 38.6 °F 29.97 in Calm     90% 0 in
01:29 41.4 °F 38.6 °F 29.97 in Calm     90% 0 in
01:34 41.2 °F 38.5 °F 29.98 in South 1.2 mph   90% 0 in
01:39 41.2 °F 38.5 °F 29.98 in SE 2 mph   90% 0 in
01:44 41.2 °F 38.5 °F 29.98 in WNW 4.6 mph   90% 0 in
01:49 41.2 °F 38.5 °F 29.98 in South 2.3 mph   90% 0 in
01:54 41.2 °F 38.5 °F 29.98 in Calm     90% 0 in
01:59 41.2 °F 38.2 °F 29.98 in Calm     89% 0 in
02:04 41.2 °F 38.2 °F 30.00 in SSE 2.4 mph   89% 0 in
02:09 40.8 °F 38.1 °F 30.00 in West 2.3 mph   90% 0 in
02:14 41 °F 38.3 °F 30.00 in WSW 4.6 mph   90% 0 in
02:19 41.2 °F 38.5 °F 30.02 in Calm   1.4 mph 90% 0 in
02:24 41.2 °F 38.5 °F 30.02 in Calm   1.4 mph 90% 0 in
02:29 41.2 °F 38.5 °F 30.02 in West 3.5 mph   90% 0 in
02:34 41.2 °F 38.5 °F 30.04 in SE 2.3 mph   90% 0 in
02:39 41.4 °F 38.6 °F 30.04 in Calm     90% 0 in
02:44 41.4 °F 38.4 °F 30.04 in South 2.3 mph   89% 0 in
02:49 41.4 °F 38.4 °F 30.05 in SSE 1.8 mph   89% 0 in
02:54 41.4 °F 38.4 °F 30.05 in SSE 2.3 mph   89% 0 in
02:59 41.4 °F 38.4 °F 30.05 in Calm     89% 0 in
03:04 41.2 °F 38.2 °F 30.05 in North 2.3 mph   89% 0 in
03:09 41 °F 38.3 °F 30.05 in SE 5.8 mph   90% 0 in
03:14 41 °F 38.3 °F 30.05 in SSW 1.8 mph   90% 0 in
03:19 40.8 °F 38.1 °F 30.06 in Calm     90% 0 in
03:24 40.8 °F 38.1 °F 30.06 in Calm     90% 0 in
03:29 40.8 °F 38.1 °F 30.06 in Calm     90% 0 in
03:34 40.8 °F 38.1 °F 30.07 in Calm     90% 0 in
03:39 40.8 °F 38.1 °F 30.07 in Calm     90% 0 in
03:44 40.8 °F 38.1 °F 30.07 in SW 2.3 mph   90% 0 in
03:49 40.8 °F 38.1 °F 30.08 in Calm     90% 0 in
03:54 40.8 °F 38.1 °F 30.08 in Calm     90% 0 in
03:59 40.8 °F 38.4 °F 30.08 in Calm     91% 0 in
04:04 40.8 °F 38.1 °F 30.09 in WNW 1.4 mph   90% 0 in
04:09 40.8 °F 38.1 °F 30.09 in Calm     90% 0 in
04:14 40.8 °F 38.1 °F 30.09 in Calm     90% 0 in
04:19 40.8 °F 38.1 °F 30.09 in Calm     90% 0 in
04:24 40.6 °F 37.9 °F 30.09 in Calm     90% 0 in
04:29 40.5 °F 37.8 °F 30.09 in Calm     90% 0 in
04:34 40.3 °F 37.6 °F 30.10 in Calm     90% 0 in
04:39 40.1 °F 37.7 °F 30.10 in WSW 2.3 mph   91% 0 in
04:44 40.3 °F 37.6 °F 30.10 in Calm     90% 0 in
04:49 40.3 °F 37.6 °F 30.12 in NNW 1.2 mph   90% 0 in
04:54 40.1 °F 37.4 °F 30.12 in Calm     90% 0 in
04:59 40.1 °F 37.7 °F 30.12 in Calm     91% 0 in
05:04 40.1 °F 37.4 °F 30.13 in Calm     90% 0 in
05:09 40.1 °F 37.4 °F 30.13 in ESE 1.2 mph   90% 0 in
05:14 39.9 °F 37.2 °F 30.13 in Calm     90% 0 in
05:19 39.9 °F 37.2 °F 30.14 in Calm     90% 0 in
05:24 39.7 °F 37 °F 30.14 in Calm     90% 0 in
05:29 39.6 °F 37.2 °F 30.14 in Calm     91% 0 in
05:34 39.4 °F 37 °F 30.14 in Calm     91% 0 in
05:39 39.4 °F 37 °F 30.14 in Calm     91% 0 in
05:44 39.2 °F 37.1 °F 30.14 in West 2.3 mph   92% 0 in
05:49 39 °F 36.9 °F 30.16 in West 2.3 mph   92% 0 in
05:54 39 °F 36.9 °F 30.16 in Calm     92% 0 in
05:59 39 °F 36.9 °F 30.16 in Calm     92% 0 in
06:04 38.8 °F 36.7 °F 30.16 in Calm     92% 0 in
06:09 38.8 °F 36.7 °F 30.16 in WSW 3.5 mph   92% 0 in
06:14 38.8 °F 36.7 °F 30.16 in WNW 3.5 mph   92% 0 in
06:19 38.8 °F 36.7 °F 30.16 in South 5.8 mph   92% 0 in
06:24 39 °F 36.9 °F 30.16 in West 4.6 mph   92% 0 in
06:29 39 °F 36.6 °F 30.16 in Calm     91% 0 in
06:34 39 °F 36.6 °F 30.19 in Calm     91% 0 in
06:39 39 °F 36.3 °F 30.19 in West 1.2 mph   90% 0 in
06:44 39 °F 36.3 °F 30.19 in South 3.5 mph   90% 0 in
06:49 39 °F 36.3 °F 30.20 in West 2.4 mph   90% 0 in
06:54 39 °F 36.1 °F 30.20 in WSW 5.2 mph   89% 0 in
06:59 39.4 °F 36.4 °F 30.20 in ESE 2.3 mph   89% 0 in
07:04 39.4 °F 36.4 °F 30.21 in Calm     89% 0 in
07:09 39.2 °F 36.2 °F 30.21 in Calm     89% 0 in
07:14 39.2 °F 36.2 °F 30.21 in Calm     89% 0 in
07:19 39 °F 36.1 °F 30.22 in Calm     89% 0 in
07:24 39 °F 36.1 °F 30.22 in West 2.3 mph   89% 0 in
07:29 39 °F 36.1 °F 30.22 in Calm     89% 0 in
07:34 38.8 °F 35.9 °F 30.24 in West 2.3 mph   89% 0 in
07:39 38.8 °F 35.9 °F 30.24 in Calm     89% 0 in
07:44 38.7 °F 35.7 °F 30.24 in West 2 mph   89% 0 in
07:49 38.7 °F 35.7 °F 30.25 in Calm     89% 0 in
07:54 38.5 °F 35.8 °F 30.25 in NNW 1.8 mph   90% 0 in
07:59 38.5 °F 35.8 °F 30.25 in Calm     90% 0 in
08:04 38.7 °F 36 °F 30.25 in Calm     90% 0 in
08:09 38.7 °F 36 °F 30.25 in SE 4 mph   90% 0 in
08:14 38.8 °F 36.2 °F 30.25 in Calm     90% 0 in
08:19 38.8 °F 36.2 °F 30.27 in SSE 4.3 mph   90% 0 in
08:24 39 °F 36.3 °F 30.27 in Calm     90% 0 in
08:29 39.2 °F 36.5 °F 30.27 in Calm     90% 0 in
08:34 39.4 °F 36.7 °F 30.27 in ESE 2.3 mph   90% 0 in
08:39 39.7 °F 37 °F 30.27 in North 2.3 mph   90% 0 in
08:44 40.1 °F 37.4 °F 30.27 in WNW 4.6 mph   90% 0 in
08:49 40.5 °F 37.2 °F 30.28 in SW 2.3 mph   88% 0 in
08:54 40.8 °F 37.5 °F 30.28 in SE 1.8 mph   88% 0 in
08:59 41 °F 37.4 °F 30.28 in SSE 3.5 mph   87% 0 in
09:04 41.4 °F 37.8 °F 30.28 in SW 4.6 mph   87% 0 in
09:09 41.4 °F 37.8 °F 30.28 in Calm     87% 0 in
09:14 41.5 °F 38 °F 30.28 in WNW 5.2 mph   87% 0 in
09:19 41.7 °F 37.8 °F 30.30 in WNW 2.3 mph 1.4 mph 86% 0 in
09:24 41.9 °F 38 °F 30.30 in West 2.3 mph 1.4 mph 86% 0 in
09:29 42.1 °F 37.9 °F 30.30 in SSE 2.3 mph   85% 0 in
09:34 42.1 °F 38.2 °F 30.30 in South 5.2 mph   86% 0 in
09:39 42.3 °F 38.1 °F 30.30 in West 2.3 mph   85% 0 in
09:44 42.3 °F 38.4 °F 30.30 in West 2.3 mph   86% 0 in
09:49 42.3 °F 38.4 °F 30.30 in WNW 2.3 mph   86% 0 in
09:54 42.4 °F 38.2 °F 30.30 in South 3.5 mph   85% 0 in
09:59 42.4 °F 38.5 °F 30.30 in West 5.8 mph   86% 0 in
10:04 42.4 °F 38.2 °F 30.31 in SE 6.2 mph   85% 0 in
10:09 42.6 °F 38.7 °F 30.31 in WNW 2.3 mph 1.4 mph 86% 0 in
10:14 42.6 °F 38.4 °F 30.31 in SW 2.3 mph 1.4 mph 85% 0 in
10:19 42.6 °F 38.4 °F 30.30 in West 2.3 mph   85% 0 in
10:24 42.6 °F 38.4 °F 30.30 in Calm     85% 0 in
10:29 42.8 °F 38.6 °F 30.30 in Calm     85% 0 in
10:34 43 °F 38.8 °F 30.30 in Calm     85% 0 in
10:39 43 °F 38.2 °F 30.30 in SE 8.1 mph   83% 0 in
10:44 43.2 °F 38.3 °F 30.30 in NNW 2.4 mph   83% 0 in
10:49 43.3 °F 38.2 °F 30.29 in SSE 4.6 mph 1.4 mph 82% 0 in
10:54 43.5 °F 38.4 °F 30.29 in Calm   1.4 mph 82% 0 in
10:59 43.7 °F 38.6 °F 30.29 in Calm     82% 0 in
11:04 43.7 °F 39.2 °F 30.29 in Calm     84% 0 in
11:09 43.9 °F 38.4 °F 30.29 in East 1.2 mph   81% 0 in
11:14 43.9 °F 38.7 °F 30.29 in WNW 1.2 mph   82% 0 in
11:19 44.1 °F 38.3 °F 30.30 in Calm     80% 0 in
11:24 44.1 °F 38.6 °F 30.30 in Calm     81% 0 in
11:29 44.2 °F 39.4 °F 30.30 in WSW 2 mph   83% 0 in
11:34 44.2 °F 39.1 °F 30.29 in SE 2.3 mph   82% 0 in
11:39 44.4 °F 39 °F 30.29 in West 4.6 mph   81% 0 in
Amateur Radio Station WA6MVG